Other Public Products
Issued by NWS Grand Forks, ND

Home | Current Version | Previous Version | Text Only | Print | Product List | Glossary On
Versions: 1 2 3 4 5 6 7 8 9 10 11 12 13 14 15 16 17 18 19 20 21 22 23 24 25 26 27 28 29 30 31 32 33 34 35 36 37 38 39 40 41 42 43 44 45 46 47 48 49 50
000
FPUS83 KFGF 201831
OPUFGF
PRAIRIE TO PINES WEATHER ROUNDUP
NATIONAL WEATHER SERVICE EASTERN NORTH DAKOTA/GRAND FORKS ND
1200 PM CST MON FEB 20 2017

 **SATELLITE DATA USED TO AUGMENT SKY COVER AT AUTOMATED STATIONS**
 *****  WEATHER ACROSS EASTERN NORTH DAKOTA  *****

CITY           SKY/WX    TMP DP  RH WIND       PRES   REMARKS
GRAND FORKS    CLOUDY    37  33  85 W13       29.60R
6HR MIN TEMP:  37; 6HR MAX TEMP:  41; 6HR PCP:  0.07;

GRAND FORKS AF LGT RAIN  37  37 100 NW15      29.60F
GRAND CITY NWS NOT AVBL
BUXTON         NOT AVBL
DEVILS LAKE    RAIN      34  34 100 NW14      29.65R FOG     WCI  24
6HR MIN TEMP:  33; 6HR MAX TEMP:  35; 6HR PCP:  0.10;

FARGO          CLOUDY    50  49  96 SW10      29.61R FOG
6HR MIN TEMP:  50; 6HR MAX TEMP:  51; 6HR PCP:  0.23;

WAHPETON ARPT  CLOUDY    48  46  93 SW7       29.61F
$$

 *****  WEATHER ACROSS CENTRAL AND WESTERN NORTH DAKOTA  *****

CITY           SKY/WX    TMP DP  RH WIND       PRES   REMARKS
JAMESTOWN      LGT RAIN  35  33  92 NW16      29.66R
6HR MIN TEMP:  35; 6HR MAX TEMP:  38; 6HR PCP:  0.05;

BISMARCK       FAIR      43  37  79 NW10      29.72S
6HR MIN TEMP:  37; 6HR MAX TEMP:  44; 6HR PCP:  0.20;

MINOT          FAIR      40  35  83 W13       29.68S
6HR MIN TEMP:  34; 6HR MAX TEMP:  40;

MINOT AFB      FAIR      37  34  89 W6        29.67S
6HR MIN TEMP:  33; 6HR MAX TEMP:  37;

GARRISON         N/A     40  34  79 NW15      29.70R
6HR MIN TEMP:  33; 6HR MAX TEMP:  40;

WILLISTON      FAIR      41  32  70 SW16      29.72S
6HR MIN TEMP:  32; 6HR MAX TEMP:  43;

DICKINSON      FAIR      49  34  56 NW18      29.73R
6HR MIN TEMP:  35; 6HR MAX TEMP:  50;

HETTINGER      FAIR      50  33  52 NW23G29   29.78R
6HR MIN TEMP:  37; 6HR MAX TEMP:  50; 6HR PCP: TRACE;

$$

 *****  OTHER OBSERVATIONS NORTHEAST NORTH DAKOTA  *****

CITY           SKY/WX    TMP DP  RH WIND       PRES   REMARKS
WALHALLA       NOT AVBL
LANGDON        NOT AVBL
CAVALIER       MIX PCPN  37  36  93 NW15      29.62S
GRAFTON        CLOUDY    36  36 100 NW14      29.63R FOG
CANDO          NOT AVBL
FORT TOTTEN      N/A     33  33 100 NW6       29.95
ROLLA          FAIR      34  34 100 SW6       29.65S
RUGBY            N/A     32  32 100 W13       29.68S FOG     WCI  22
 ***** THE ABOVE OBSERVATIONS ARE NON NWS ARE NOT QUALITY
        CONTROLLED AND MAY MIS-REPORT RAIN FOR SNOW...
$$

 *****  OTHER OBSERVATIONS SOUTHEAST NORTH DAKOTA *****

CITY           SKY/WX    TMP DP  RH WIND       PRES   REMARKS
COOPERSTOWN    CLOUDY    34  34 100 NW16      29.63F FOG     WCI  23
VALLEY CITY    FLURRIES  36  36 100 NW18G26   29.64F
OAKES          NOT AVBL
GWINNER        CLOUDY    39  37  93 NW12      29.64S
SHEYENNE NWR     N/A     42  42  99 NW13      29.95S
BUFFALO        NOT AVBL
WYNDMERE         N/A     48  48 100 SE2         N/A
 ***** THE ABOVE OBSERVATIONS ARE NON NWS ARE NOT QUALITY
       CONTROLLED AND MAY MIS-REPORT RAIN FOR SNOW...
$$

  *****  WEATHER ACROSS NORTHERN MINNESOTA  *****

CITY           SKY/WX    TMP DP  RH WIND       PRES   REMARKS
FLAG ISLAND    LGT RAIN  39  37  93 SE12      29.59F
WARROAD        HVY RAIN  41  37  87 S12       29.60F
ROSEAU         RAIN      41  36  81 S10       29.58F VSB 1
HALLOCK        DRZL/FOG  36  36 100 NW9       29.60R VSB 1/4
THF RVR FALLS  LGT RAIN  43  42  97 SE14      29.58F VSB 1/4
6HR MIN TEMP:  40; 6HR MAX TEMP:  44; 6HR PCP:  0.20;

HALSTAD          N/A     45  45  99 W14         N/A
FOSSTON        RAIN      45  43  93 SE8       29.60S VSB<1/4
BAUDETTE       LGT RAIN  41  39  93 SE12      29.61F FOG
6HR MIN TEMP:  38; 6HR MAX TEMP:  41; 6HR PCP:  0.09;

WASKISH        LGT RAIN  45  43  93 SE6       29.64F
CROOKSTON      DRZL/FOG  39  39 100 W14       29.61R VSB<1/4
$$
  *****  WEATHER ACROSS CENTRAL AND WEST MINNESOTA  *****

CITY           SKY/WX    TMP DP  RH WIND       PRES   REMARKS
BEMIDJI        RAIN      41  40  98 SE8       29.63F
PARK RAPIDS    LGT RAIN  46  44  93 SE17      29.60F VSB 3/4
6HR MIN TEMP:  42; 6HR MAX TEMP:  47; 6HR PCP:  0.06;

WADENA         RAIN      46  46 100 SE8       29.62F
DETROIT LAKES  LGT RAIN  45  45 100 SE10      29.63F VSB 3/4
MOORHEAD       CLOUDY    46  46 100 SW6       29.62R FOG
FERGUS FALLS   DRIZZLE   48  48 100 S8        29.66R
ELBOW LAKE     CLOUDY    50  50 100 S8        29.63R FOG
MORRIS MN      CLOUDY    52  52 100 S8        29.63R FOG
STAPLES        RAIN      46  45  93 SE8       29.65F
WHEATON        CLOUDY    54  50  87 S7        29.64F FOG
$$
  *****  WEATHER ELSEWHERE ACROSS MINNESOTA  *****

CITY           SKY/WX    TMP DP  RH WIND       PRES   REMARKS
DULUTH         PTSUNNY   42  37  82 E16       29.75F
6HR MIN TEMP:  40; 6HR MAX TEMP:  43; 6HR PCP:  0.04;

INTRNTL FALLS  LGT RAIN  44  40  85 SE7       29.67F FOG
6HR MIN TEMP:  40; 6HR MAX TEMP:  46; 6HR PCP: TRACE;

ELY            PTSUNNY   45  36  70 SE13G20   29.76F
CLOQUET        LGT RAIN  39  36  87 SE6       29.76F
BRAINERD       LGT RAIN  47  46  97 SE8       29.68F FOG
6HR MIN TEMP:  45; 6HR MAX TEMP:  49; 6HR PCP:  0.12;

HIBBING        LGT RAIN  43  39  86 S9G20     29.71F
6HR MIN TEMP:  40; 6HR MAX TEMP:  43;

ALEXANDRIA     CLOUDY    50  49  96 SE10      29.63F FOG
6HR MIN TEMP:  50; 6HR MAX TEMP:  52; 6HR PCP:  0.05;

SAINT CLOUD    LGT RAIN  49  49 100 SE8       29.67F FOG
6HR MIN TEMP:  48; 6HR MAX TEMP:  50; 6HR PCP:  0.12;

MINNEAPOLIS    LGT RAIN  50  47  89 SE12      29.72F FOG
6HR MIN TEMP:  49; 6HR MAX TEMP:  51; 6HR PCP:  0.10;

$$

  *****  WEATHER ACROSS SOUTH DAKOTA  *****

CITY           SKY/WX    TMP DP  RH WIND       PRES   REMARKS
SIOUX FALLS    CLOUDY    57  55  93 SW10      29.66S FOG
6HR MIN TEMP:  53; 6HR MAX TEMP:  57; 6HR PCP:  0.13;

BROOKINGS      PTSUNNY   55  53  93 S13       29.63F FOG
WATERTOWN      CLOUDY    51  51 100 SW8       29.61F FOG
6HR MIN TEMP:  49; 6HR MAX TEMP:  51; 6HR PCP:  0.01;

HURON          FAIR      46  41  82 NW18      29.68R
6HR MIN TEMP:  45; 6HR MAX TEMP:  53; 6HR PCP:  0.01;

SISSETON         N/A     53  52  96 SW8       29.61S
ABERDEEN       PTSUNNY   46  38  73 N17       29.67R
6HR MIN TEMP:  42; 6HR MAX TEMP:  51; 6HR PCP:  0.05;

MITCHELL       FAIR      48  42  80 NW23      29.69R
PIERRE         FAIR      49  42  77 NW14      29.75R
6HR MIN TEMP:  42; 6HR MAX TEMP:  50; 6HR PCP:  0.11;

MOBRIDGE       FAIR      45  38  76 NW8       29.71S
RAPID CITY     FAIR      59  22  24 NW17G24   29.82F
6HR MIN TEMP:  40; 6HR MAX TEMP:  59; 6HR PCP: TRACE;

$$

  *****  SOME WEATHER IN NEARBY STATES *****

CITY           SKY/WX    TMP DP  RH WIND       PRES   REMARKS
GLASGOW MT     FAIR      44  29  55 SW8       29.73S
6HR MIN TEMP:  27; 6HR MAX TEMP:  44;

GREAT FALLS MT FAIR      48  23  37 S15       29.61F
6HR MIN TEMP:  29; 6HR MAX TEMP:  48;

CHEYENNE WY    FAIR      49  13  23 NW23G35   29.97F
6HR MIN TEMP:  36; 6HR MAX TEMP:  49;

SCOTTSBLUFF NE FAIR      55  19  24 W12       29.96R
6HR MIN TEMP:  30; 6HR MAX TEMP:  55;

OMAHA NE       CLOUDY    61  56  83 S9        29.73R
6HR MIN TEMP:  57; 6HR MAX TEMP:  61; 6HR PCP:  0.01;

DES MOINES IA  LGT RAIN  60  57  89 S14       29.79F
6HR MIN TEMP:  58; 6HR MAX TEMP:  62; 6HR PCP:  0.23;

DAVENPORT IA   FAIR      63  52  67 SE20      29.93F
6HR MIN TEMP:  50; 6HR MAX TEMP:  63;

CHICAGO IL     CLOUDY    65  47  52 S16       30.05F
6HR MIN TEMP:  43; 6HR MAX TEMP:  65;

EAU CLAIRE WI  RAIN      48  45  89 E10       29.80F FOG
6HR MIN TEMP:  45; 6HR MAX TEMP:  49; 6HR PCP:  0.02;

LA CROSSE WI   CLOUDY    55  50  83 SE10      29.85F
6HR MIN TEMP:  51; 6HR MAX TEMP:  58; 6HR PCP: TRACE;

$$

  *****  SOME NATIONAL WEATHER *****

CITY           SKY/WX    TMP DP  RH WIND       PRES   REMARKS
LA GUARDIA NY  FAIR      53  25  33 NW12      30.17F
6HR MIN TEMP:  45; 6HR MAX TEMP:  54;



USA.gov is the U.S. government's official web portal to all federal, state and local government web resources and services.